Lapse_Rate
-4.3 -4.6 -4.8 -5.0 -5.1 -5.1 -5.2 -5.4 -5.4 -5.4 -5.4 -5.4 -5.6 -5.8 -6.0 -6.1 -5.6 -3.8 1.8 4.3 3.0 2.5 1.9 6.3 7.0 6.8 7.1 6.5 5.9 4.7 6.5 6.5 6.5 6.5 6.5 5.4 6.3 6.6 6.4 6.9 7.2 7.2 6.2 7.2 7.6
-4.4 -4.7 -5.0 -5.0 -5.1 -5.3 -5.5 -5.6 -5.6 -5.6 -5.7 -5.8 -6.0 -5.9 -6.0 -6.3 -3.6 -0.1 2.6 4.4 3.0 2.0 6.8 7.6 7.1 5.7 3.5 5.8 5.1 5.9 6.5 6.5 6.5 6.5 6.5 6.3 5.6 5.5 6.3 6.6 6.6 6.6 7.0 7.6 7.5
-4.5 -4.8 -4.9 -5.0 -5.2 -5.5 -5.7 -5.7 -5.8 -5.9 -6.0 -6.1 -6.0 -6.0 -6.3 -6.5 0.5 3.6 3.0 4.1 1.6 3.2 7.0 7.3 6.5 4.8 5.6 3.8 6.2 6.2 6.5 6.5 6.6 6.5 6.1 6.1 6.0 6.1 6.1 6.5 6.5 6.5 7.0 7.1 6.2
-4.5 -4.9 -5.0 -5.1 -5.4 -5.7 -5.9 -5.8 -6.0 -6.1 -6.2 -6.3 -6.2 -6.3 -6.5 -4.7 6.5 6.3 2.0 1.7 1.9 4.8 6.3 5.2 5.4 4.4 6.4 6.5 7.1 6.5 6.7 6.7 5.9 5.6 5.8 6.2 5.1 6.0 6.1 6.0 6.1 6.1 7.2 6.8 7.7
-4.6 -4.9 -5.1 -5.3 -5.5 -5.8 -6.1 -6.2 -6.2 -6.4 -6.4 -6.3 -6.3 -6.3 -4.3 2.6 3.4 4.6 1.6 1.3 3.7 5.3 6.7 4.9 4.4 4.6 6.5 6.5 6.7 6.5 6.5 6.7 5.0 5.1 4.7 5.8 6.0 6.3 5.9 6.7 6.4 6.7 7.6 7.0 6.5
-4.8 -5.1 -5.3 -5.5 -5.7 -6.0 -6.2 -6.5 -6.6 -6.6 -6.4 -6.4 -6.2 -6.1 -0.4 5.8 5.6 3.2 2.9 2.7 5.0 5.8 6.3 6.4 5.5 3.9 6.0 6.4 6.6 6.8 6.8 6.5 6.2 5.6 4.9 6.2 6.2 5.6 6.6 6.7 6.9 6.9 7.0 6.7 6.6
-4.8 -5.2 -5.5 -5.7 -5.9 -6.2 -6.4 -6.7 -6.9 -6.7 -6.4 -6.3 -6.0 -2.8 1.2 3.4 5.5 2.7 3.1 3.5 4.3 4.8 5.6 6.4 5.0 6.1 5.0 6.5 5.3 6.6 6.5 6.5 6.3 5.9 6.3 5.2 6.5 6.5 6.7 6.7 7.0 7.0 6.7 6.8 6.7
-5.1 -5.4 -5.8 -6.0 -6.3 -6.5 -6.8 -7.1 -7.0 -6.6 -6.1 -5.9 -5.3 -1.3 2.1 4.0 4.7 4.0 3.0 4.9 4.8 5.2 5.2 5.4 3.9 4.4 5.5 5.4 6.4 6.5 6.5 6.5 6.5 6.2 5.8 5.8 6.5 6.5 6.5 6.6 6.6 6.8 7.0 6.9 6.5
-5.0 -5.5 -5.9 -6.3 -6.6 -7.1 -7.4 -7.5 -6.8 -5.9 -5.7 -4.6 -1.9 1.7 3.2 4.3 4.8 3.6 3.8 5.4 4.8 4.6 4.7 7.2 4.5 5.2 5.3 6.5 6.5 6.5 6.5 6.5 6.5 6.4 6.5 6.5 6.5 6.4 6.4 6.4 6.4 6.6 6.7 7.0 6.4
-4.8 -5.4 -6.0 -6.5 -6.9 -7.7 -7.9 -7.5 -5.7 -4.5 -4.3 -1.3 2.6 4.5 2.6 5.6 6.2 5.5 3.9 5.7 6.0 5.8 5.9 5.7 5.3 6.5 6.5 6.5 6.5 6.5 6.5 6.5 6.5 6.5 6.5 6.5 6.5 6.5 6.5 6.4 6.4 6.4 6.5 6.6 6.5
-4.6 -5.4 -6.1 -6.6 -7.1 -7.9 -9.1 -3.8 1.9 3.8 3.3 3.7 3.7 3.8 5.4 6.4 7.3 6.2 5.7 6.2 6.3 6.0 6.5 4.9 6.5 6.5 6.5 6.5 6.5 6.5 6.5 6.5 6.5 6.5 6.5 6.5 6.5 6.5 6.5 6.5 6.3 6.3 6.4 6.3 6.1
-4.5 -5.3 -6.2 -6.8 -7.4 -8.1 -9.1 0.7 3.5 6.5 4.9 3.6 4.3 5.0 5.6 6.1 6.4 6.2 5.5 5.6 5.8 6.5 6.2 6.5 6.5 6.5 6.5 6.5 6.5 6.5 6.5 6.5 6.5 6.5 6.5 6.5 6.5 6.5 6.5 6.4 6.5 6.6 6.5 6.5 6.1
-4.4 -5.3 -6.4 -7.1 -8.0 -7.9 -4.1 0.9 2.3 3.6 4.7 4.7 4.4 4.1 4.4 4.5 5.7 5.6 4.8 4.9 6.2 6.5 6.5 6.5 6.5 6.5 6.5 6.5 6.5 6.5 6.5 6.5 6.5 6.5 6.5 6.5 6.5 6.5 6.5 6.1 6.4 6.7 6.7 6.5 6.3
-4.4 -5.1 -6.1 -8.0 -2.8 -5.3 0.3 2.6 1.8 2.3 6.5 6.5 5.9 5.1 6.2 5.3 5.8 5.7 4.7 5.2 6.2 6.5 6.5 6.5 6.3 6.5 6.5 6.5 6.5 6.5 6.5 6.5 6.5 6.5 6.5 6.5 6.5 6.5 6.5 6.5 6.5 5.1 6.4 6.5 6.4
-4.4 -5.1 -5.8 -7.5 -7.7 -1.1 3.8 0.2 1.5 2.3 6.5 6.5 5.9 5.7 3.8 5.0 5.8 5.5 5.2 5.5 6.5 6.5 6.5 6.5 6.5 6.5 6.5 6.5 6.5 6.5 6.5 6.5 6.5 6.5 6.5 6.5 6.5 6.5 6.5 6.5 6.5 6.2 4.5 6.5 6.4
-4.5 -5.3 -6.2 -6.6 -8.7 -4.6 -2.4 -1.6 2.1 6.5 6.5 6.5 5.7 6.2 6.3 5.3 5.7 6.0 6.1 5.4 4.8 6.5 6.5 6.5 5.4 6.5 6.5 6.5 6.5 6.5 6.5 6.5 6.5 6.5 6.5 6.5 6.5 6.5 6.5 6.5 6.5 6.3 4.9 6.2 6.6
-5.1 -5.6 -6.9 -4.7 0.1 -1.0 -1.2 1.2 6.5 6.5 6.5 6.5 6.5 6.5 6.5 6.5 6.5 6.5 6.5 6.5 6.5 6.5 6.5 6.5 6.5 6.4 6.3 6.5 6.5 6.5 6.5 6.5 6.5 6.5 6.5 6.5 6.5 6.5 6.5 6.5 6.5 6.6 3.8 4.9 5.5
-5.7 -6.6 -7.4 -6.3 -4.0 -1.7 0.3 5.9 6.5 6.5 6.5 6.5 6.5 6.5 6.5 6.5 6.5 6.5 6.5 6.5 6.5 6.5 6.5 6.5 6.5 6.5 6.5 6.5 6.5 6.5 6.5 6.5 6.5 6.5 6.5 6.5 6.5 6.5 6.5 4.9 5.7 3.9 2.8 1.6 5.3
-6.2 -5.4 -5.4 -5.0 -5.8 -2.2 1.7 6.5 6.5 6.5 6.5 6.5 6.5 6.5 6.5 6.5 6.5 6.5 6.5 6.5 6.5 6.5 6.5 6.5 6.5 6.5 6.5 6.5 6.5 6.5 6.5 6.5 6.5 6.5 6.5 6.5 6.5 6.5 6.5 6.5 6.3 5.1 4.2 3.4 3.5
-6.8 -4.1 -2.5 -0.0 -1.7 -0.0 5.2 6.5 6.5 6.4 6.4 6.5 6.5 6.5 6.5 6.5 6.5 6.5 6.5 6.5 6.5 6.5 5.7 6.5 6.5 6.5 6.5 6.4 6.3 6.5 6.5 6.5 6.5 6.5 6.5 6.5 6.5 6.5 6.5 6.5 6.5 6.6 5.0 2.8 3.1
-3.8 1.5 1.0 0.4 0.6 0.5 6.5 6.5 6.5 5.0 5.7 6.5 6.5 6.5 6.5 6.5 6.5 6.5 6.5 6.5 6.5 6.5 6.0 6.5 6.5 6.5 6.5 6.5 6.5 6.5 6.5 6.5 6.5 6.5 6.5 6.5 6.5 6.5 6.5 6.5 6.5 6.3 4.8 4.0 3.7
-4.0 6.2 2.7 2.1 3.7 3.3 6.5 6.5 4.9 6.1 5.0 6.4 6.5 6.5 6.5 6.5 6.5 6.5 6.5 6.5 5.5 5.9 6.5 6.5 6.5 6.5 6.5 6.5 6.5 6.5 6.5 6.5 6.5 6.5 6.5 6.5 6.5 6.5 6.5 6.5 6.4 6.2 6.6 5.9 4.1
-0.9 0.5 2.7 2.9 6.5 6.5 5.9 6.5 6.0 6.6 6.5 6.5 6.5 6.5 6.5 6.5 6.5 6.5 6.5 5.7 5.2 6.5 6.5 6.5 6.5 6.5 6.5 6.5 6.5 6.5 6.5 6.5 6.5 6.5 6.5 6.5 6.5 6.5 6.4 6.4 6.3 5.8 4.7 4.8 5.8
0.3 6.5 1.9 1.7 1.2 6.4 6.5 6.5 6.5 5.2 6.2 5.7 6.5 6.3 6.5 6.5 6.5 6.5 6.5 6.5 5.0 5.8 3.9 3.9 6.5 6.5 6.5 6.5 6.5 6.5 6.5 6.5 6.5 6.5 6.5 6.5 6.5 6.5 6.5 6.5 5.8 4.0 2.8 2.5 2.0
0.8 5.1 5.3 6.5 5.6 6.3 6.3 6.5 6.5 6.5 5.8 4.9 6.5 6.5 6.5 6.5 6.5 6.5 6.5 6.5 5.9 4.4 4.8 6.5 6.5 6.5 6.5 6.5 6.5 6.5 6.5 6.5 6.5 6.5 6.5 6.5 6.5 6.5 6.5 6.5 5.9 4.0 3.8 2.9 1.2
3.5 4.1 3.1 3.9 4.3 6.3 6.5 6.5 6.5 6.5 6.5 6.5 6.5 6.5 6.5 6.5 6.5 6.5 6.5 6.5 6.5 6.5 6.5 6.5 6.5 6.5 6.5 6.5 6.5 6.5 6.5 6.5 6.5 6.5 6.5 6.5 6.5 6.5 6.0 5.7 5.5 4.3 3.6 4.7 3.7
0.5 2.0 3.5 3.6 5.8 6.5 6.5 6.5 6.5 6.3 5.6 6.2 6.3 6.5 6.5 6.5 4.9 5.3 4.3 4.4 5.9 6.5 6.5 6.5 6.5 6.5 6.5 6.5 6.5 6.5 6.5 6.5 6.5 6.5 6.5 6.5 6.5 6.5 6.5 6.2 5.0 4.2 3.6 2.7 1.6
Wind_Speed
16 16 16 17 17 17 17 16 16 16 15 15 15 15 15 17 19 4 5 8 7 7 4 4 4 6 8 3 5 1 4 3 4 2 4 4 7 3 6 15 6 9 11 23 23
16 17 17 17 18 18 18 17 16 16 15 15 15 14 15 15 3 6 8 8 10 13 2 2 5 8 4 6 3 4 3 5 7 3 7 6 9 8 7 12 1 10 14 18 22
17 17 18 18 18 19 18 18 17 17 16 15 14 14 14 11 3 5 12 12 9 6 2 4 3 3 4 1 3 1 5 7 15 11 8 9 7 4 11 3 16 21 22 18 23
19 19 19 19 19 20 20 19 17 16 16 15 14 14 14 2 1 1 11 12 9 7 3 4 6 4 4 2 5 3 13 12 8 6 5 9 8 5 4 7 18 22 23 18 21
19 20 20 19 20 20 21 20 17 16 15 13 13 12 2 3 6 7 13 12 6 5 2 2 4 4 5 2 3 4 9 10 11 10 6 7 8 8 8 16 17 22 19 18 15
20 21 21 21 21 21 22 22 20 16 15 12 11 9 2 3 2 15 10 7 6 4 4 6 2 3 4 3 5 6 13 18 12 11 5 7 4 7 10 19 19 23 20 17 18
22 23 22 22 22 23 23 23 22 18 15 11 7 3 1 11 3 12 10 7 5 4 4 8 5 6 8 3 13 11 6 12 15 9 7 7 4 11 18 22 22 21 20 19 20
23 23 23 23 23 24 25 25 24 20 13 9 4 2 6 5 9 6 6 4 7 7 10 6 7 3 4 4 4 6 5 4 1 11 5 7 6 13 19 22 22 21 19 20 21
24 24 24 24 24 25 27 29 25 15 5 5 2 2 9 8 7 10 8 6 8 8 8 13 8 7 5 3 4 4 3 3 9 14 5 6 4 18 20 20 20 20 20 19 20
24 24 24 24 23 25 30 27 5 2 4 5 4 3 4 5 4 6 8 11 6 4 4 8 3 3 3 3 4 3 5 5 5 6 6 9 11 22 20 19 21 19 19 18 19
26 26 25 24 22 20 14 4 4 3 2 8 6 5 3 2 0 6 7 8 3 3 4 4 1 6 13 13 11 6 5 9 19 6 6 6 4 21 23 17 18 18 18 19 21
28 27 27 26 23 18 2 1 6 3 7 10 12 11 15 3 6 9 8 7 5 6 4 5 7 14 14 17 10 7 3 7 6 6 3 5 8 6 20 22 21 23 20 21 18
28 28 29 30 30 1 2 7 8 7 3 8 8 7 6 9 8 12 11 7 6 4 7 5 13 12 11 15 6 6 3 4 4 3 1 1 6 7 8 15 18 20 22 20 21
28 27 27 35 2 5 5 5 8 6 4 7 5 8 5 8 5 8 9 7 3 9 8 8 11 6 7 7 9 4 4 1 4 5 2 4 6 5 4 9 9 13 22 21 21
28 25 23 14 4 3 6 13 10 5 3 4 4 3 8 9 3 5 5 4 9 8 3 10 11 9 11 6 2 9 4 3 2 4 5 2 3 7 4 5 16 15 10 20 22
30 24 19 3 1 8 16 11 5 5 5 4 7 7 6 3 4 2 4 3 7 6 3 9 7 4 5 10 4 6 5 8 5 4 4 9 5 10 5 9 8 17 11 19 21
35 25 9 4 4 7 6 4 5 3 6 4 5 6 7 7 5 5 5 3 7 4 4 8 13 7 3 8 7 2 6 4 5 4 6 6 2 10 11 12 13 9 9 20 21
39 32 7 5 8 6 4 5 3 4 6 6 5 3 8 8 8 8 5 5 5 4 4 4 9 5 4 6 8 7 8 6 7 4 7 4 5 7 9 16 1 7 8 7 17
32 2 2 5 14 3 5 2 7 6 2 8 5 4 3 3 1 5 9 8 9 12 11 7 8 8 4 9 8 9 4 9 4 2 2 4 8 11 11 9 3 6 6 9 9
4 4 4 6 17 5 4 6 5 3 6 4 4 3 3 3 2 11 7 9 8 12 6 9 6 6 16 2 4 6 3 2 2 3 5 5 6 5 19 17 6 10 8 10 10
3 4 3 15 4 5 3 7 5 7 7 6 7 5 1 1 2 1 6 5 4 11 15 6 6 13 4 3 8 5 4 3 5 5 6 2 4 4 7 12 7 8 5 6 7
4 1 2 5 4 1 3 5 4 6 4 6 5 4 3 1 1 2 1 5 5 5 4 5 7 4 10 8 4 4 0 3 5 7 4 4 4 4 6 10 13 17 14 17 17
3 3 3 5 3 3 6 6 5 7 9 5 4 4 3 3 3 2 5 6 6 4 2 2 3 3 10 7 7 5 5 4 3 3 3 4 5 2 1 14 13 12 11 12 11
1 3 4 3 1 3 2 7 6 7 12 9 7 3 5 5 3 3 6 3 9 5 4 7 4 7 6 7 3 4 7 4 4 1 3 5 4 5 3 9 6 7 6 6 7
2 3 1 3 4 4 3 7 8 7 4 4 6 6 5 2 6 5 4 8 7 5 9 4 2 3 7 9 4 4 6 7 3 3 3 3 6 4 0 1 3 5 2 7 7
2 3 5 4 5 5 2 2 9 18 5 8 2 8 8 7 6 2 2 3 4 6 4 5 3 5 5 5 6 3 4 5 3 3 4 7 5 3 1 5 6 5 6 5 6
4 4 3 5 5 3 2 7 11 8 5 1 1 5 8 6 6 5 5 3 5 3 2 2 3 3 4 3 4 4 3 1 5 7 4 1 2 3 3 5 5 8 7 7 9
Wind_Direction
351 347 345 343 343 341 337 335 335 332 329 328 328 327 322 321 311 157 229 214 199 199 192 285 235 258 264 54 51 87 54 338 280 202 182 202 108 116 125 138 168 185 154 162 156
349 346 346 345 341 337 334 333 332 329 329 328 327 324 317 326 290 243 247 200 208 154 199 316 359 30 33 15 26 59 50 242 233 226 188 167 143 144 113 157 99 105 135 145 149
348 346 345 343 337 333 331 330 331 330 328 325 325 318 314 318 297 248 196 196 137 167 262 330 139 84 93 217 77 60 231 266 285 243 178 158 150 115 121 138 154 148 155 154 151
347 344 341 340 334 331 328 327 328 325 324 325 322 318 314 250 145 162 162 113 134 205 200 46 84 58 66 36 96 271 244 239 281 302 146 153 157 120 148 182 154 151 158 162 160
344 340 338 337 331 329 323 321 321 321 319 318 315 322 310 340 253 145 121 135 165 188 168 169 42 130 98 137 274 176 288 257 233 266 150 135 113 142 153 142 144 149 160 167 175
342 337 335 334 330 326 321 318 315 316 311 310 311 319 359 307 146 148 137 156 192 179 183 212 197 137 116 180 184 218 240 273 296 258 202 144 113 103 158 146 151 157 170 173 182
340 336 334 333 328 324 319 314 311 310 303 301 300 285 300 235 175 162 158 177 201 202 214 232 169 187 142 219 223 245 264 276 277 218 217 121 118 159 160 159 162 171 178 179 188
338 334 331 328 326 323 316 311 306 301 293 281 236 215 250 250 171 174 185 221 219 222 225 225 159 200 193 259 277 239 163 246 156 186 220 145 223 179 166 162 172 177 185 189 194
334 332 330 328 328 323 315 307 302 289 231 155 132 147 271 307 167 203 168 210 203 227 238 258 140 215 6 346 343 349 319 210 294 195 168 186 216 176 175 173 177 182 187 196 197
331 330 328 327 327 324 319 304 276 325 170 188 263 330 278 238 202 186 199 213 219 263 280 195 222 231 35 81 264 279 310 294 251 201 178 197 256 170 183 180 184 189 190 198 202
332 330 328 325 326 327 342 6 17 60 209 204 185 249 269 241 258 219 177 206 255 359 274 320 84 252 247 213 242 223 229 259 271 226 192 222 246 179 190 190 190 194 197 200 208
332 330 328 325 321 320 276 125 226 115 301 226 243 240 265 40 305 231 122 161 175 235 287 337 253 244 243 251 237 249 265 281 320 170 134 282 279 241 188 197 196 193 200 204 204
330 330 328 324 319 95 207 238 285 49 311 283 202 212 221 146 226 249 144 183 189 244 257 211 257 316 263 251 242 262 224 310 265 323 256 115 327 335 181 202 202 199 204 202 203
328 329 330 327 332 323 257 270 310 153 35 273 198 249 191 158 290 202 183 148 204 229 261 254 265 266 328 303 234 262 227 171 24 55 243 84 291 287 290 276 234 186 199 203 202
326 328 331 325 293 304 290 328 326 57 16 231 182 171 150 160 201 254 137 128 196 233 115 256 304 326 320 264 338 227 31 39 319 25 11 32 59 269 260 257 255 242 212 202 200
324 325 332 97 228 246 307 308 46 46 267 229 151 161 118 227 245 15 160 145 193 215 234 251 274 220 245 293 265 287 31 33 41 70 0 275 126 289 237 220 255 258 189 205 200
321 315 302 284 232 335 318 37 49 149 315 227 175 145 171 189 256 183 234 227 183 153 281 303 284 291 278 300 326 120 61 352 348 351 229 307 17 237 258 253 228 253 271 193 192
322 314 213 214 252 356 37 57 171 249 248 290 159 94 170 168 231 214 194 227 234 165 159 197 316 173 251 193 238 255 158 164 212 218 266 317 262 269 259 247 158 200 211 170 181
322 328 257 244 205 94 75 109 210 218 308 333 37 118 311 297 161 145 208 225 216 181 189 171 254 275 255 259 142 271 161 197 120 120 45 264 289 300 346 329 294 198 151 131 162
323 334 262 122 146 86 80 235 233 256 357 25 345 115 147 295 271 176 174 230 240 200 171 227 257 235 268 57 252 167 188 82 19 210 269 287 323 265 332 324 280 222 182 163 155
3 359 272 131 84 53 175 236 286 299 0 357 310 266 102 65 29 352 228 319 194 302 181 164 156 267 1 198 242 316 344 62 125 144 184 235 257 262 325 340 352 328 311 22 51
343 0 238 114 69 151 196 220 294 287 333 276 266 226 218 133 313 302 53 230 342 304 54 200 157 185 226 261 239 135 294 137 117 280 220 175 264 321 338 32 25 44 41 58 70
342 266 293 99 166 256 291 276 245 264 266 262 312 355 30 68 356 268 335 283 48 52 127 308 12 29 345 354 5 41 336 118 148 62 206 130 250 157 55 59 54 52 45 64 59
46 354 319 33 113 167 321 279 264 262 253 238 236 186 30 6 123 291 321 316 351 354 218 93 125 148 186 222 199 306 321 320 134 108 175 206 190 282 64 103 88 80 89 66 51
149 262 235 294 320 312 219 258 287 293 247 321 224 178 159 251 328 337 338 333 14 26 357 81 248 208 210 224 235 213 287 318 347 256 141 231 187 247 320 54 37 110 57 122 134
50 28 348 294 290 294 347 336 251 271 212 286 221 223 174 175 176 138 76 58 278 348 32 9 307 5 317 346 28 349 348 97 84 123 127 150 181 241 90 37 45 9 48 328 312
317 334 110 277 320 10 322 321 299 288 285 142 55 98 70 153 151 150 165 199 228 307 337 128 100 47 263 342 32 17 270 71 73 7 310 251 43 164 53 54 14 3 342 281 263